G4SEJ Weather Reports


time (UTC)temp
C
wind
direction
speed
KPH
gust
KPH
rain 1hr
cm
rain 24hr
cm
rain mn
cm
humidity
%
barometer
mb
20260510103954 12 67 17.7 32.2 0.00 0.00 0.00 81 1015.6
20260510102956 12 59 19.3 33.8 0.00 0.00 0.00 81 1015.6
20260510102451 12 73 19.3 40.2 0.00 0.00 0.00 82 1015.7
20260510101451 12 18 17.7 37.0 0.00 0.00 0.00 82 1015.6
20260510100950 12 58 17.7 37.0 0.00 0.00 0.00 81 1015.6
20260510100452 12 58 17.7 33.8 0.00 0.00 0.00 82 1015.6
20260510095951 12 72 19.3 32.2 0.00 0.00 0.00 81 1015.6
20260510095446 12 58 19.3 35.4 0.00 0.00 0.00 81 1015.7
20260510093947 12 27 14.5 33.8 0.00 0.00 0.00 81 1015.7
20260510093448 12 6 16.1 33.8 0.00 0.00 0.00 82 1015.8
20260510092947 12 62 16.1 35.4 0.00 0.00 0.00 82 1015.8
20260510091944 12 97 16.1 29.0 0.00 0.00 0.00 82 1015.9
20260510091445 12 28 16.1 30.6 0.00 0.00 0.00 82 1015.9
20260510090945 11 58 16.1 37.0 0.00 0.00 0.00 82 1015.9
20260510090444 11 75 16.1 37.0 0.00 0.00 0.00 83 1015.9
20260510085940 11 69 16.1 32.2 0.00 0.00 0.00 83 1015.9
20260510085440 11 68 17.7 30.6 0.00 0.00 0.00 84 1015.9
20260510084940 11 35 17.7 30.6 0.00 0.00 0.00 83 1015.9
20260510083942 11 96 17.7 29.0 0.00 0.00 0.00 84 1015.8
20260510083442 11 50 17.7 29.0 0.00 0.00 0.00 84 1015.7
20260510082941 11 53 16.1 27.4 0.00 0.00 0.00 85 1015.7
20260510082436 11 336 14.5 29.0 0.00 0.00 0.00 86 1015.7
20260510081935 11 55 12.9 29.0 0.00 0.00 0.00 86 1015.8
20260510081434 11 58 14.5 30.6 0.00 0.00 0.00 86 1015.8
20260510080934 11 55 16.1 30.6 0.00 0.00 0.00 86 1015.8
20260510080435 11 43 16.1 30.6 0.00 0.00 0.00 86 1015.8
20260510075936 11 23 14.5 29.0 0.00 0.00 0.00 86 1015.9
20260510075435 11 56 14.5 29.0 0.00 0.00 0.00 87 1015.9
20260510074929 11 56 16.1 30.6 0.00 0.00 0.00 87 1015.9
20260510074428 11 53 16.1 30.6 0.00 0.00 0.00 87 1015.9
20260510073928 11 75 14.5 29.0 0.00 0.00 0.00 87 1015.9
20260510073428 11 55 14.5 25.7 0.00 0.00 0.00 87 1015.9
20260510072928 11 71 12.9 25.7 0.00 0.00 0.00 87 1015.9
20260510072428 11 76 12.9 27.4 0.00 0.00 0.00 88 1015.9
20260510071929 11 64 14.5 27.4 0.00 0.00 0.00 88 1015.9
20260510071426 11 43 14.5 27.4 0.00 0.00 0.00 87 1016.0
20260510070437 11 84 14.5 25.7 0.00 0.00 0.00 87 1016.0
20260510065927 11 57 12.9 24.1 0.00 0.00 0.00 87 1016.0
20260510065426 11 51 12.9 24.1 0.00 0.00 0.00 87 1016.0
20260510064926 11 41 16.1 27.4 0.00 0.00 0.00 88 1016.0
20260510064426 11 69 16.1 27.4 0.00 0.00 0.00 87 1016.0
20260510063927 11 69 16.1 27.4 0.00 0.00 0.00 87 1016.0
20260510063421 11 13 14.5 27.4 0.00 0.00 0.00 86 1015.9
20260510062920 11 1 14.5 27.4 0.00 0.00 0.00 87 1015.9
20260510061921 11 32 16.1 30.6 0.00 0.00 0.00 87 1015.9
20260510061421 11 40 19.3 35.4 0.00 0.00 0.00 87 1015.9
20260510060921 11 57 19.3 35.4 0.00 0.00 0.00 87 1015.9
20260510060415 11 66 17.7 32.2 0.00 0.00 0.00 87 1015.8
20260510055915 11 44 16.1 32.2 0.00 0.00 0.00 89 1015.8
20260510055416 11 56 16.1 32.2 0.00 0.00 0.00 88 1015.8
20260510054916 11 48 16.1 9.7 0.00 0.00 0.00 89 1015.9
20260510053401 10 60 12.9 24.1 0.00 0.00 0.00 89 1016.0
20260510052901 10 60 12.9 24.1 0.00 0.00 0.00 89 1016.0
20260510052401 10 88 12.9 24.1 0.00 0.00 0.00 90 1016.1
20260510051901 10 56 14.5 27.4 0.00 0.00 0.00 90 1016.0
20260510050855 10 10 14.5 29.0 0.00 0.00 0.00 90 1016.0
20260510050355 10 48 14.5 29.0 0.00 0.00 0.00 90 1016.0
20260510045855 10 62 14.5 27.4 0.00 0.00 0.00 90 1016.0
20260510044855 11 66 12.9 27.4 0.00 0.00 0.00 90 1016.0
20260510043850 11 37 12.9 24.1 0.00 0.00 0.00 90 1016.0
20260510043351 11 75 12.9 24.1 0.00 0.00 0.00 90 1015.9
20260510042851 11 65 11.3 24.1 0.00 0.00 0.00 90 1015.9
20260510041852 11 23 12.9 27.4 0.00 0.00 0.00 90 1015.9
20260510040845 11 53 12.9 22.5 0.00 0.00 0.00 90 1015.8
20260510035845 11 18 12.9 29.0 0.00 0.00 0.00 90 1015.9
20260510034345 11 1 12.9 32.2 0.00 0.00 0.00 90 1015.8
20260510033839 11 46 11.3 32.2 0.00 0.00 0.00 91 1015.8
20260510033339 11 44 12.9 29.0 0.00 0.00 0.00 90 1015.8
20260510032839 11 62 11.3 29.0 0.00 0.00 0.00 91 1015.9
20260510032339 11 65 9.7 9.7 0.00 0.00 0.00 90 1015.9
20260510030849 11 70 11.3 22.5 0.00 0.00 0.00 90 1015.8
20260510030402 11 108 11.3 22.5 0.00 0.00 0.00 90 1015.8
20260510025849 11 44 9.7 20.9 0.00 0.00 0.00 90 1015.8
20260510025349 11 98 11.3 22.5 0.00 0.00 0.00 90 1015.8
20260510024846 11 77 9.7 22.5 0.00 0.00 0.00 90 1015.8
20260510024345 11 77 9.7 19.3 0.00 0.00 0.00 90 1015.8
20260510023846 11 79 9.7 19.3 0.00 0.00 0.00 90 1015.9
20260510023345 11 64 9.7 19.3 0.00 0.00 0.00 90 1015.9
20260510022846 11 60 9.7 19.3 0.00 0.00 0.00 90 1015.9
20260510022345 11 45 11.3 19.3 0.00 0.00 0.00 90 1015.9
20260510021847 11 354 9.7 19.3 0.00 0.00 0.00 90 1015.9
20260510020342 11 49 8.0 16.1 0.00 0.00 0.00 90 1015.9
20260510014342 12 69 6.4 16.1 0.00 0.00 0.00 88 1016.0
20260510013843 12 76 6.4 17.7 0.00 0.00 0.00 87 1016.1
20260510012843 12 77 9.7 20.9 0.00 0.00 0.00 83 1016.2
20260510012342 12 63 9.7 20.9 0.00 0.00 0.00 83 1016.2
20260510011342 12 40 11.3 19.3 0.00 0.00 0.00 83 1016.1
20260510010844 12 65 9.7 20.9 0.00 0.00 0.00 83 1016.1
20260510010341 12 53 8.0 20.9 0.00 0.00 0.00 83 1016.1
20260510005841 12 65 9.7 12.9 0.00 0.00 0.00 83 1016.2
20260510004531 11 56 9.7 17.7 0.00 0.00 0.00 83 1015.9
20260510004025 12 46 8.0 17.7 0.00 0.00 0.00 83 1016.0
20260510003527 12 37 6.4 14.5 0.00 0.00 0.00 82 1016.2
20260510002526 12 54 9.7 19.3 0.00 0.00 0.00 81 1016.2
20260510001527 12 47 8.0 16.1 0.00 0.00 0.00 81 1016.1
20260510001022 12 51 8.0 17.7 0.00 0.00 0.00 80 1016.2
20260510000523 12 79 6.4 17.7 0.00 0.00 0.00 80 1016.3
20260509235022 12 21 8.0 16.1 0.00 0.00 0.00 80 1016.4
20260509234523 12 45 8.0 16.1 0.00 0.00 0.00 80 1016.4
20260509234017 12 79 8.0 17.7 0.00 0.00 0.00 79 1016.4
20260509233519 12 55 8.0 19.3 0.00 0.00 0.00 80 1016.5
20260509233017 12 65 6.4 19.3 0.00 0.00 0.00 80 1016.5
20260509232518 12 41 6.4 20.9 0.00 0.00 0.00 80 1016.6
20260509232018 12 36 8.0 20.9 0.00 0.00 0.00 80 1016.6
20260509231519 12 51 8.0 14.5 0.00 0.00 0.00 80 1016.6
20260509231018 12 60 8.0 16.1 0.00 0.00 0.00 80 1016.7
20260509230512 12 83 8.0 19.3 0.00 0.00 0.00 80 1016.6
20260509230010 12 34 9.7 19.3 0.00 0.00 0.00 80 1016.6
20260509225510 12 55 8.0 16.1 0.00 0.00 0.00 80 1016.6
20260509225006 12 45 8.0 16.1 0.00 0.00 0.00 80 1016.5
20260509224507 12 56 8.0 16.1 0.00 0.00 0.00 81 1016.5
20260509223506 12 32 6.4 14.5 0.00 0.00 0.00 81 1016.5
20260509222001 12 58 8.0 12.9 0.00 0.00 0.00 81 1016.5
20260509221500 12 48 6.4 14.5 0.00 0.00 0.00 81 1016.6
20260509220459 12 53 8.0 16.1 0.00 0.00 0.00 80 1016.6
20260509220000 12 65 8.0 14.5 0.00 0.00 0.00 80 1016.6
20260509215500 12 46 8.0 17.7 0.00 0.00 0.00 79 1016.6
20260509214956 12 33 8.0 17.7 0.00 0.00 0.00 79 1016.5
20260509214457 12 45 6.4 14.5 0.00 0.00 0.00 78 1016.5
20260509213955 12 73 4.8 12.9 0.00 0.00 0.00 78 1016.5
20260509212956 12 63 6.4 12.9 0.00 0.00 0.00 77 1016.6
20260509212456 12 72 4.8 12.9 0.00 0.00 0.00 78 1016.5
20260509211951 12 20 4.8 12.9 0.00 0.00 0.00 78 1016.5
20260509211452 12 65 3.2 12.9 0.00 0.00 0.00 79 1016.5
20260509210953 12 72 3.2 12.9 0.00 0.00 0.00 79 1016.5
20260509210451 12 50 4.8 11.3 0.00 0.00 0.00 79 1016.4
20260509205952 12 51 6.4 11.3 0.00 0.00 0.00 80 1016.4
20260509205453 12 53 4.8 9.7 0.00 0.00 0.00 81 1016.3
20260509204948 12 50 4.8 11.3 0.00 0.00 0.00 82 1016.3
20260509203947 12 67 3.2 12.9 0.00 0.00 0.00 82 1016.4
20260509203446 12 83 4.8 12.9 0.00 0.00 0.00 83 1016.4
20260509202441 12 63 6.4 11.3 0.00 0.00 0.00 83 1016.4
20260509201939 12 79 6.4 11.3 0.00 0.00 0.00 83 1016.4
20260509200937 12 48 6.4 6.4 0.00 0.00 0.00 82 1016.3
20260509195730 12 64 6.4 14.5 0.00 0.00 0.00 83 1016.0
20260509195225 12 63 6.4 14.5 0.00 0.00 0.00 82 1016.0
20260509194722 12 58 6.4 12.9 0.00 0.00 0.00 81 1016.0
20260509194223 12 53 6.4 12.9 0.00 0.00 0.00 81 1016.0
20260509193722 12 34 6.4 14.5 0.00 0.00 0.00 80 1016.0
20260509193222 12 72 6.4 16.1 0.00 0.00 0.00 81 1016.0
20260509192721 12 64 6.4 16.1 0.00 0.00 0.00 80 1015.9
20260509191719 13 49 6.4 17.7 0.00 0.00 0.00 79 1015.9
20260509191219 13 63 6.4 12.9 0.00 0.00 0.00 78 1015.8
20260509190719 13 63 6.4 14.5 0.00 0.00 0.00 77 1015.8
20260509190220 13 61 6.4 14.5 0.00 0.00 0.00 76 1015.8
20260509185720 13 52 6.4 12.9 0.00 0.00 0.00 73 1015.8
20260509185219 13 68 8.0 14.5 0.00 0.00 0.00 69 1015.8
20260509184713 13 39 8.0 16.1 0.00 0.00 0.00 67 1015.8
20260509184213 13 48 6.4 16.1 0.00 0.00 0.00 67 1015.8
20260509183711 13 62 8.0 16.1 0.00 0.00 0.00 67 1015.8
20260509183211 13 26 8.0 16.1 0.00 0.00 0.00 65 1015.7
20260509182710 13 52 8.0 16.1 0.00 0.00 0.00 65 1015.7
20260509182208 14 68 8.0 16.1 0.00 0.00 0.00 65 1015.7
20260509181703 14 60 9.7 17.7 0.00 0.00 0.00 65 1015.7
20260509181159 14 69 11.3 19.3 0.00 0.00 0.00 65 1015.7
20260509180659 14 49 11.3 19.3 0.00 0.00 0.00 63 1015.6
20260509180200 14 70 9.7 19.3 0.00 0.00 0.00 63 1015.6
20260509175200 14 54 9.7 19.3 0.00 0.00 0.00 65 1015.5
20260509174654 14 101 11.3 20.9 0.00 0.00 0.00 64 1015.6
20260509174155 14 68 11.3 20.9 0.00 0.00 0.00 64 1015.5
20260509173655 14 60 11.3 22.5 0.00 0.00 0.00 64 1015.5
20260509173154 14 79 11.3 22.5 0.00 0.00 0.00 65 1015.5
20260509172654 15 47 11.3 22.5 0.00 0.00 0.00 64 1015.5
20260509172154 15 23 12.9 22.5 0.00 0.00 0.00 64 1015.5
20260509171651 15 69 11.3 22.5 0.00 0.00 0.00 64 1015.6
20260509171151 15 58 11.3 22.5 0.00 0.00 0.00 63 1015.6
20260509170651 15 76 11.3 19.3 0.00 0.00 0.00 64 1015.6
20260509170152 15 74 11.3 19.3 0.00 0.00 0.00 63 1015.7
20260509165652 15 51 9.7 19.3 0.00 0.00 0.00 65 1015.8
20260509165153 15 56 11.3 20.9 0.00 0.00 0.00 65 1015.8
20260509164146 15 45 12.9 25.7 0.00 0.00 0.00 68 1015.8
20260509163646 15 56 12.9 24.1 0.00 0.00 0.00 68 1015.8
20260509163146 15 27 12.9 25.7 0.00 0.00 0.00 69 1015.8
20260509162646 15 61 14.5 25.7 0.00 0.00 0.00 67 1015.8
20260509161645 15 67 11.3 20.9 0.00 0.00 0.00 64 1015.9
20260509161138 16 134 9.7 20.9 0.00 0.00 0.00 63 1015.9
20260509160640 16 62 8.0 20.9 0.00 0.00 0.00 63 1016.0
20260509155640 16 60 11.3 19.3 0.00 0.00 0.00 63 1016.0
20260509155140 15 56 11.3 20.9 0.00 0.00 0.00 63 1016.1
20260509154640 15 87 11.3 20.9 0.00 0.00 0.00 61 1016.2
20260509153634 16 44 11.3 22.5 0.00 0.00 0.00 62 1016.4
20260509153133 16 47 11.3 20.9 0.00 0.00 0.00 63 1016.4
20260509152634 16 82 9.7 20.9 0.00 0.00 0.00 65 1016.4
20260509152134 16 64 9.7 25.7 0.00 0.00 0.00 65 1016.4
20260509151634 16 34 11.3 25.7 0.00 0.00 0.00 65 1016.3
20260509151129 16 51 11.3 22.5 0.00 0.00 0.00 66 1016.2
20260509150129 16 88 11.3 22.5 0.00 0.00 0.00 67 1016.1
20260509145628 16 68 11.3 29.0 0.00 0.00 0.00 67 1016.2
20260509145129 16 119 11.3 29.0 0.00 0.00 0.00 66 1016.2
20260509144630 16 55 11.3 22.5 0.00 0.00 0.00 66 1016.1
20260509144129 15 23 11.3 24.1 0.00 0.00 0.00 66 1016.0
20260509143624 15 61 12.9 27.4 0.00 0.00 0.00 69 1016.0
20260509143122 15 71 14.5 27.4 0.00 0.00 0.00 69 1016.0
20260509142124 15 55 12.9 27.4 0.00 0.00 0.00 70 1016.0
20260509141624 15 83 12.9 24.1 0.00 0.00 0.00 72 1016.0
20260509141124 15 55 14.5 24.1 0.00 0.00 0.00 72 1016.0
20260509140618 15 49 14.5 24.1 0.00 0.00 0.00 71 1016.0
20260509140118 15 58 14.5 27.4 0.00 0.00 0.00 71 1016.0
20260509135618 15 62 14.5 27.4 0.00 0.00 0.00 71 1015.9
20260509135118 15 67 14.5 24.1 0.00 0.00 0.00 72 1016.0
20260509134618 15 63 12.9 20.9 0.00 0.00 0.00 71 1016.1
20260509134117 15 67 14.5 32.2 0.00 0.00 0.00 72 1016.0
20260509133612 15 56 14.5 32.2 0.00 0.00 0.00 71 1016.1
20260509132610 15 51 16.1 27.4 0.00 0.00 0.00 70 1016.2
20260509131112 16 55 14.5 25.7 0.00 0.00 0.00 66 1016.3
20260509130611 16 65 12.9 25.7 0.00 0.00 0.00 68 1016.4
20260509130107 16 51 12.9 20.9 0.00 0.00 0.00 67 1016.4
20260509125605 16 37 14.5 25.7 0.00 0.00 0.00 69 1016.4
20260509125105 15 53 16.1 25.7 0.00 0.00 0.00 69 1016.5
20260509124606 15 49 14.5 24.1 0.00 0.00 0.00 68 1016.5
20260509124106 16 47 14.5 24.1 0.00 0.00 0.00 69 1016.4
20260509123600 16 69 14.5 25.7 0.00 0.00 0.00 67 1016.5
20260509122101 16 25 12.9 24.1 0.00 0.00 0.00 70 1016.5
20260509121602 16 39 12.9 22.5 0.00 0.00 0.00 69 1016.6
20260509121102 16 70 11.3 20.9 0.00 0.00 0.00 67 1016.6
20260509120558 16 91 11.3 22.5 0.00 0.00 0.00 70 1016.6
20260509120101 16 68 11.3 22.5 0.00 0.00 0.00 68 1016.6
20260509115558 16 57 9.7 19.3 0.00 0.00 0.00 69 1016.6
20260509115059 16 107 9.7 22.5 0.00 0.00 0.00 69 1016.6
20260509114059 16 56 12.9 20.9 0.00 0.00 0.00 70 1016.7
20260509113555 16 4 12.9 20.9 0.00 0.00 0.00 73 1016.8
20260509113056 16 45 11.3 20.9 0.00 0.00 0.00 71 1016.9
20260509112555 16 41 11.3 20.9 0.00 0.00 0.00 70 1017.0
20260509112055 16 64 11.3 22.5 0.00 0.00 0.00 72 1017.0
20260509111556 16 62 11.3 22.5 0.00 0.00 0.00 71 1017.0
20260509111055 16 67 11.3 20.9 0.00 0.00 0.00 71 1017.1
20260509110551 16 58 11.3 20.9 0.00 0.00 0.00 73 1017.1
20260509110104 16 74 11.3 20.9 0.00 0.00 0.00 71 1017.1
20260509105552 16 59 11.3 22.5 0.00 0.00 0.00 71 1017.1
20260509105051 16 12 11.3 22.5 0.00 0.00 0.00 72 1017.1
20260509104551 16 67 11.3 24.1 0.00 0.00 0.00 73 1017.1
20260509104052 16 21 11.3 24.1 0.00 0.00 0.00 73 1017.1